Retour au catalogue

CHECKMATE 7

ActifMilitairePO
NORAD 56166·PAYLOAD·🇺🇸 United States

Lancé Apr 2, 2023 depuis Vandenberg Space Force Base

Loading…

Prochains Passages (prochaines 24 heures)

TLE

FraisSource: Space-Track

Époque: Sep 14, 2026, 04:36 UTC

1 56166U 23050E   26257.19191390  .00000148  00000-0  11134-3 0  9995
2 56166  81.0042 345.2973 0021994  67.4140 292.9343 13.89451017174464

Suivez CHECKMATE 7 en temps réel avec AllMySat

Download on the App Store